Weather History for Hettinger, ND

Change the Weather History Date:

Wednesday, November 21, 2012

  Actual Average Record
Temperature  
Mean Temperature 47 °F -  
Max Temperature 66 °F 38 °F 66 °F (2012)
Min Temperature 27 °F 15 °F -2 °F (2011)
Degree Days  
Heating Degree Days 18 39  
Month to date heating degree days 625 709  
Since 1 July heating degree days 1613 1764  
Moisture  
Dew Point 30 °F    
Average Humidity 59    
Maximum Humidity 92    
Minimum Humidity 26    
Precipitation  
Precipitation 0.00 in 0.00 in 0.18 in (2008)
Month to date precipitation 0.06 0.56  
Year to date precipitation 14.58 15.75  
Sea Level Pressure  
Sea Level Pressure 29.74 in    
Wind  
Wind Speed 5 mph (WSW)    
Max Wind Speed 17 mph    
Max Gust Speed 23 mph    
Visibility 10 miles    
Events      
T = Trace of Precipitation, MM = Missing Value Source: NWS Daily Summary

Daily Weather History Graph

Daily Weather History Graph

Search for Another Location

Airport:

Trip Planner

Search our weather history database for the weather conditions in past years. The results will help you decide how hot, cold, wet, or windy it might be!

Date:

Astronomy

Nov. 21, 2012 Rise Set
Actual Time 7:00 AM MST 4:12 PM MST
Civil Twilight 6:27 AM MST 4:45 PM MST
Nautical Twilight 5:50 AM MST 5:22 PM MST
Astronomical Twilight 5:14 AM MST 5:58 PM MST
Moon 12:48 PM MST (11/21) 12:01 AM MST (11/21)
Length of Visible Light 10h 18m
Length of Day
9h 12m
Waxing Gibbous, 62% of the Moon is Illuminated
Nov 21
Waxing Gibbous
Nov 28
Full
Dec 6
Last Quarter
Dec 13
New
Dec 19
First Quarter

Hourly Weather History & Observations

Time (MST) Temp. Windchill Dew Point Humidity Pressure Visibility Wind Dir Wind Speed Gust Speed Precip Events Conditions
12:53 AM 39.9 °F - 27.0 °F 60% 29.86 in 10.0 mi Calm Calm - N/A   Clear
1:53 AM 43.0 °F 40.3 °F 28.0 °F 56% 29.84 in 10.0 mi South 4.6 mph - N/A   Clear
2:53 AM 37.0 °F - 27.0 °F 67% 29.84 in 10.0 mi Calm Calm - N/A   Clear
3:53 AM 34.0 °F - 26.1 °F 73% 29.83 in 10.0 mi Calm Calm - N/A   Clear
4:53 AM 34.0 °F 31.0 °F 26.1 °F 73% 29.83 in 10.0 mi SE 3.5 mph - N/A   Clear
5:53 AM 33.1 °F 30.0 °F 26.1 °F 75% 29.85 in 10.0 mi SSE 3.5 mph - N/A   Clear
6:53 AM 27.0 °F - 24.1 °F 89% 29.85 in 10.0 mi Calm Calm - N/A   Clear
7:53 AM 33.1 °F - 26.1 °F 75% 29.84 in 10.0 mi Calm Calm - N/A   Clear
8:53 AM 41.0 °F 38.0 °F 30.9 °F 67% 29.80 in 10.0 mi NW 4.6 mph - N/A   Clear
9:53 AM 51.1 °F - 34.0 °F 52% 29.77 in 10.0 mi West 4.6 mph - N/A   Clear
10:53 AM 53.1 °F - 32.0 °F 45% 29.72 in 10.0 mi SSW 3.5 mph - N/A   Clear
11:53 AM 61.0 °F - 32.0 °F 34% 29.66 in 10.0 mi West 8.1 mph - N/A   Clear
12:53 PM 64.9 °F - 32.0 °F 29% 29.63 in 10.0 mi SW 8.1 mph - N/A   Clear
1:53 PM 66.0 °F - 30.9 °F 27% 29.61 in 10.0 mi SW 5.8 mph - N/A   Clear
2:53 PM 64.9 °F - 30.9 °F 28% 29.61 in 10.0 mi SW 6.9 mph - N/A   Clear
3:53 PM 57.0 °F - 30.9 °F 37% 29.62 in 10.0 mi SSW 5.8 mph - N/A   Clear
4:53 PM 50.0 °F - 28.9 °F 44% 29.64 in 10.0 mi Calm Calm - N/A   Clear
5:53 PM 37.9 °F 35.5 °F 27.0 °F 65% 29.67 in 10.0 mi WSW 3.5 mph - N/A   Clear
6:53 PM 41.0 °F 37.1 °F 28.0 °F 60% 29.69 in 10.0 mi NW 5.8 mph - N/A   Clear
7:53 PM 37.9 °F 32.1 °F 28.9 °F 70% 29.71 in 10.0 mi WNW 8.1 mph - N/A   Clear
8:53 PM 44.1 °F 38.1 °F 35.1 °F 71% 29.70 in 10.0 mi WNW 11.5 mph - N/A   Clear
9:53 PM 46.0 °F 39.6 °F 35.1 °F 66% 29.73 in 10.0 mi WNW 15.0 mph - N/A   Overcast
10:53 PM 45.0 °F 38.9 °F 37.0 °F 74% 29.74 in 10.0 mi WNW 12.7 mph - N/A   Overcast
11:53 PM 44.1 °F 38.1 °F 37.0 °F 76% 29.74 in 10.0 mi WNW 11.5 mph - N/A   Mostly Cloudy